This is the latest recevied weather packets stored in our database for station/object OE6PLD-13. If no packets are shown the sender has not sent any weather packets the latest 10 day(s).
| Time | Temp. | Humidity | Pressure | Rain* | Wind** | Luminosity | Snow |
|---|---|---|---|---|---|---|---|
| 1778142848 | 17.78° C | 70% | 1016.9 hPa | 0.76 mm | - | 472 W/m² | - |
| 1778142665 | 17.78° C | 70% | 1016.9 hPa | 0.76 mm | - | 370 W/m² | - |
| 1778142481 | 18.33° C | 70% | 1016.7 hPa | 0.76 mm | - | 507 W/m² | - |
| 1778142298 | 18.89° C | 68% | 1016.8 hPa | 0.76 mm | - | 415 W/m² | - |
| 1778142115 | 18.33° C | 68% | 1017 hPa | 0.76 mm | - | 528 W/m² | - |
| 1778141932 | 17.78° C | 71% | 1016.7 hPa | 0.76 mm | - | 343 W/m² | - |
| 1778141748 | 17.78° C | 71% | 1016.9 hPa | 0.76 mm | - | 284 W/m² | - |
| 1778141565 | 17.78° C | 70% | 1016.7 hPa | 0.76 mm | - | 213 W/m² | - |
| 1778141381 | 17.78° C | 71% | 1016.7 hPa | 0.76 mm | - | 197 W/m² | - |
| 1778141198 | 17.78° C | 71% | 1016.9 hPa | 0.76 mm | - | 198 W/m² | - |
| 1778141015 | 17.78° C | 70% | 1016.9 hPa | 0.76 mm | - | 184 W/m² | - |
| 1778140831 | 17.78° C | 72% | 1016.7 hPa | 0.76 mm | - | 220 W/m² | - |
| 1778140648 | 17.78° C | 70% | 1016.7 hPa | 0.76 mm | - | 290 W/m² | - |
| 1778140465 | 17.78° C | 70% | 1016.7 hPa | 0.76 mm | - | 238 W/m² | - |
| 1778140281 | 17.78° C | 70% | 1016.7 hPa | 0.76 mm | - | 234 W/m² | - |
| 1778140098 | 17.22° C | 71% | 1016.7 hPa | 0.76 mm | - | 224 W/m² | - |
| 1778139915 | 17.22° C | 71% | 1016.8 hPa | 0.76 mm | - | 289 W/m² | - |
| 1778139731 | 17.22° C | 72% | 1016.7 hPa | 0.76 mm | - | 228 W/m² | - |
| 1778139548 | 17.22° C | 72% | 1016.7 hPa | 0.76 mm | - | 196 W/m² | - |
| 1778139365 | 17.22° C | 72% | 1016.5 hPa | 0.76 mm | - | 185 W/m² | - |
| 1778139181 | 16.67° C | 73% | 1016.4 hPa | 0.76 mm | - | 181 W/m² | - |
| 1778138998 | 16.67° C | 74% | 1016.4 hPa | 0.76 mm | - | 168 W/m² | - |
| 1778138814 | 16.67° C | 75% | 1016.3 hPa | 0.76 mm | - | 153 W/m² | - |
| 1778138631 | 16.67° C | 76% | 1016.4 hPa | 0.76 mm | - | 137 W/m² | - |
| 1778138448 | 16.67° C | 76% | 1016.4 hPa | 0.76 mm | - | 131 W/m² | - |
* Rain latest hour (hover to see other rain measurements)
** Current wind speed in m/s (hover to see current wind gust speed)